TimeMST,TemperatureF,Dew PointF,Humidity,Sea Level PressureIn,VisibilityMPH,Wind Direction,Wind SpeedMPH,Gust SpeedMPH,PrecipitationIn,Events,Conditions,WindDirDegrees,DateUTC
12:53 AM,41.0,30.0,65,29.94,10.0,WSW,8.1,-,N/A,,Clear,250,2013-02-07 07:53:00
1:53 AM,41.0,30.0,65,29.95,10.0,West,9.2,-,N/A,,Clear,260,2013-02-07 08:53:00
2:53 AM,39.9,30.0,68,29.96,10.0,West,10.4,-,N/A,,Clear,260,2013-02-07 09:53:00
3:53 AM,39.0,30.9,73,29.96,10.0,West,10.4,-,N/A,,Clear,270,2013-02-07 10:53:00
4:53 AM,39.0,30.9,73,29.99,10.0,West,8.1,-,N/A,,Clear,270,2013-02-07 11:53:00
5:53 AM,37.0,30.9,79,30.01,10.0,West,6.9,-,N/A,,Clear,280,2013-02-07 12:53:00
6:53 AM,36.0,30.0,79,30.04,10.0,West,6.9,-,N/A,,Clear,280,2013-02-07 13:53:00
7:53 AM,37.9,30.0,73,30.07,10.0,West,3.5,-,N/A,,Clear,260,2013-02-07 14:53:00
8:53 AM,46.0,32.0,58,30.07,10.0,South,3.5,-,N/A,,Clear,190,2013-02-07 15:53:00
9:53 AM,53.1,34.0,48,30.06,10.0,South,5.8,-,N/A,,Clear,180,2013-02-07 16:53:00
10:53 AM,57.0,33.1,40,30.05,10.0,SSE,4.6,-,N/A,,Clear,160,2013-02-07 17:53:00
11:53 AM,59.0,27.0,29,30.03,10.0,Variable,4.6,-,N/A,,Clear,0,2013-02-07 18:53:00
12:53 PM,61.0,23.0,23,30.00,10.0,SE,4.6,-,N/A,,Clear,130,2013-02-07 19:53:00
1:53 PM,61.0,23.0,23,29.97,10.0,Variable,3.5,-,N/A,,Clear,0,2013-02-07 20:53:00
2:53 PM,62.1,23.0,22,29.96,10.0,Variable,4.6,-,N/A,,Clear,0,2013-02-07 21:53:00
3:53 PM,63.0,19.9,19,29.96,10.0,WNW,4.6,-,N/A,,Clear,300,2013-02-07 22:53:00
4:53 PM,61.0,17.1,18,29.97,10.0,SW,5.8,-,N/A,,Clear,230,2013-02-07 23:53:00
5:53 PM,57.9,16.0,19,29.99,10.0,Calm,Calm,-,N/A,,Clear,0,2013-02-08 00:53:00
6:53 PM,52.0,16.0,24,30.01,10.0,Calm,Calm,-,N/A,,Clear,0,2013-02-08 01:53:00
7:53 PM,46.0,14.0,28,30.04,10.0,SE,4.6,-,N/A,,Clear,130,2013-02-08 02:53:00
8:53 PM,42.1,15.1,34,30.04,10.0,NE,3.5,-,N/A,,Clear,40,2013-02-08 03:53:00
9:53 PM,39.9,16.0,38,30.01,10.0,NNE,5.8,-,N/A,,Clear,30,2013-02-08 04:53:00
10:53 PM,39.9,16.0,38,30.01,10.0,NE,5.8,-,N/A,,Clear,50,2013-02-08 05:53:00
11:53 PM,37.9,15.1,39,30.01,10.0,NE,8.1,-,N/A,,Clear,40,2013-02-08 06:53:00